Simultaneous Nadir Overpasses (SNOs) Predictions

Prediction of SNOs between GOES-17 and AQUA Satellite Orbit:

Table of predicted SNOs for the next 14.0 days since TLE Epoch: 3/5/2021
Index Date Time (GOES-17) GOES-17 Lat,Lon AQUA Lat,Lon Distance(km) Time Diff (sec)
1 03/05/2021 22:58:10 0.05,-137.22 -0.72,-140.87 415.13 80
2 03/07/2021 22:45:58 0.04,-137.21 -0.13,-137.91 79.76 80
3 03/09/2021 22:36:27 0.03,-137.20 0.53,-134.96 255.45 80
4 03/10/2021 10:57:43 -0.03,-137.19 0.56,-140.12 332.11 80
5 03/12/2021 10:42:51 -0.02,-137.17 -0.04,-137.15 3.47 80
6 03/14/2021 10:30:39 -0.02,-137.16 -0.65,-134.19 337.54 80
7 03/14/2021 22:52:03 0.02,-137.16 -0.43,-139.38 252.33 80
8 03/16/2021 22:42:31 0.02,-137.14 0.19,-136.42 81.76 80
9 03/18/2021 22:30:19 0.02,-137.11 0.81,-133.46 415.17 80
10 03/19/2021 10:51:34 -0.02,-137.10 0.33,-138.61 172.75 80
